Showing default

IRIDE-MS2-HEO-15, 68987

Orbit data source: Space-Track

IRIDE-MS2-HEO-15, 68987 is an Italian payload satellite in SSO that was launched on Sun, 03 May 2026 UTC via an FALCON 9 launch vehicle from the Air Force Western Test Range (AFWTR). Payload-class satellites include a variety of spacecraft equipped with specific instruments for various scientific and technological missions. These include communications satellites like Starlink; space stations such as the ISS; scientific satellites like the Hubble; Earth observation satellites from companies like Planet Labs, Umbra, and HawkEye 360; GPS; miniature CubeSats for education and research; and military/defense satellites.

Loading next visibility...
Identifier
68987, 2026-100H
Orbit
SSO
Country
Flag of ITIT
Related business
Manufacturer
ArgoTec
Mission
Operational spacecraft
Bus & Motor
HAWK, Unknown motor
Mass
65 kg wet, 65 kg dry
Launch date (UTC)
2026-05-03 (1 month ago)
Launch vehicle
FALCON 9
Launch site
Air Force Western Test Range (AFWTR)
Object type
Payload
Rocket body
Debris
Shape & HBR
Unknown shape, 14.5 m
Radar Cross Section
Medium (>0.1 m² and <1 m²)

Expand to show TLE details & history
Last TLE update: 10 hours ago

TLE from 10 hours ago
0 IRIDE-MS2-HEO-15
1 68987U 26100H   26168.67679880  .00001246  00000-0  12902-3 0  9991
2 68987  97.7339  66.1157 0002906 107.9406 252.2130 14.91806726  6777
Epoch: 2026-06-17T16:14Z
TLE epoch observation values (Epoch: 2026-06-17T16:14:35.416Z)
Latitude
Longitude
-83.46292°
Altitude
595.964 km
Speed
7.561 km/s
True Right ascension
04h 24m 27s
True Declination
0° 00' 00"
Sunlit
Object was in daylight at epoch
Visualization orbit readout
Latitude
Unknown
Longitude
Unknown
Altitude
Unknown
Speed
Unknown
Apparent Right ascension
Unknown
Apparent Declination
Unknown
Sunlit
N/A
Visualization observer readout
Local Sidereal Time
12:49:25
Azimuth
Unknown
Elevation
Unknown
Doppler factor
Unknown
Orbital elements
Apogee altitude
591.344 km
Perigee altitude
587.295 km
Semi-major axis
6,967.457 km
Eccentricity
0.00029
Inclination
97.7339°
RAAN
66.1157°
Arg. of periapsis
107.9406°
True anomaly
252.1813°
Mean anomaly
252.213°
Eccentric anomaly
252.19715°
Mean motion
3.73192 °/min
Orbital period
96.47 mins
BSTAR
0.00012902
Loading maneuver chart data...
Computing Atmospheric mass density...
Loading historical data...
Loading historical data...
Loading historical data...
Loading historical data...
Loading historical data...
Loading historical data...
Loading historical data...

Documentation

Showing up to 5 results
|